Simultaneous Nadir Overpasses (SNOs) Predictions

Prediction of SNOs between GOES-16 and METOP-C Satellite Orbit:

Table of predicted SNOs for the next 14.0 days since TLE Epoch: 4/18/2025
Index Date Time (GOES-16) GOES-16 Lat,Lon METOP-C Lat,Lon Distance(km) Time Diff (sec)
1 04/19/2025 02:53:47 -0.07, -79.56 -0.23, -80.42 98.13 80
2 04/21/2025 14:49:21 0.06, -80.83 -0.14, -80.05 90.29 80
3 04/23/2025 03:11:02 -0.06, -81.58 -0.73, -84.67 351.90 80
4 04/24/2025 02:47:42 -0.05, -82.08 0.46, -79.69 271.83 80
5 04/25/2025 15:09:15 0.05, -82.87 0.34, -84.29 161.73 80
6 04/26/2025 14:45:56 0.05, -83.37 -0.86, -79.31 462.23 80
7 04/28/2025 03:04:56 -0.05, -84.12 0.01, -83.94 20.83 80
8 04/29/2025 15:26:29 0.05, -84.91 0.85, -88.53 412.66 80
9 04/30/2025 15:03:09 0.05, -85.41 -0.36, -83.55 211.28 80
10 05/02/2025 03:24:49 -0.04, -86.16 -0.48, -88.18 229.97 80
